Flag for Chad Weather past 2 weeks in Ndjamena, Chad

Now
77 °F

Thunderstorms. Broken clouds.


Feels Like: 78 °F
Forecast: 74 / 91 °F
Wind: 7 mph from West

Location: Ndjamena

Current Time: Jul 31, 2015 at 3:24:23 PM

Latest Report: Jul 31, 2015 at 3:00 PM


Visibility: 5 mi

Pressure: 29.89 "Hg

Humidity: 89%

Dew point: 73 °F

Location of NdjamenaLocation

Historic Weather in Ndjamena — Graph

°F

Ndjamena temperature yesterday

Maximum temperature yesterday: 93 °F (at 2:00 PM)
Minimum temperature yesterday: 75 °F (at 1:00 AM)
Average temperature yesterday: 82 °F

Past Weeks' High & Low Weather Summary

 TemperatureHumidityPressure
High99 °F (Jul 17, 3:00 PM)100% (Jul 17, 11:00 PM)30.04 "Hg (Jul 17, 11:00 PM)
Low72 °F (Jul 18, 3:00 AM)49% (Jul 25, 6:00 PM)29.74 "Hg (Jul 17, 4:00 PM)
Average81 °F78%29.87 "Hg
* Reported Jul 16 2:00 PM — Jul 31 2:00 PM, Ndjamena, Weather by CustomWeather, © 2015

Note: Actual official high and low records may vary slightly from our data, if they occured in-between our weather recording intervals... More about our weather records

Advertising

Ndjamena weather history for previous 24 hours

 ConditionsComfort  
Time TempWeatherWind HumidityBarometerVisibility
2:00 PM
Fri, Jul 31
75 °FThunderstorms. Broken clouds.6 mph89%29.92 "Hg5 mi
1:00 PM73 °FStrong thunderstorms. Cloudy.14 mph78%29.92 "Hg1 mi
12:00 PM90 °FThunderstorms. Broken clouds.3 mph75%29.92 "Hg4 mi
11:00 AM90 °FPartly sunny.3 mph79%29.95 "HgN/A
10:00 AM88 °FPassing clouds.6 mph79%29.95 "HgN/A
9:00 AM86 °FPassing clouds.7 mph75%29.95 "HgN/A
8:00 AM82 °FPassing clouds.6 mph89%29.92 "HgN/A
7:00 AM79 °FPassing clouds.5 mph89%29.89 "HgN/A
6:00 AM75 °FSunny.2 mph94%29.89 "Hg10 mi
5:00 AM75 °FClear.2 mph83%29.89 "Hg10 mi
4:00 AM77 °FClear.3 mph83%29.86 "Hg10 mi
3:00 AM77 °FClear.2 mph79%29.86 "Hg10 mi
2:00 AM77 °FClear.2 mph83%29.89 "Hg10 mi
1:00 AM79 °FThunderstorms. Passing clouds.5 mph79%29.89 "HgN/A
12:00 AM79 °FThunderstorms. Passing clouds.5 mph89%29.92 "HgN/A
11:00 PM
Thu, Jul 30
81 °FThunderstorms. Passing clouds.1 mph89%29.92 "HgN/A
10:00 PM82 °FThunderstorms. Passing clouds.No wind84%29.92 "HgN/A
9:00 PM81 °FThunderstorms. Passing clouds.No wind89%29.86 "HgN/A
8:00 PM81 °FThunderstorms. Passing clouds.2 mph89%29.86 "HgN/A
7:00 PM84 °FPassing clouds.3 mph89%29.83 "HgN/A
6:00 PM88 °FPassing clouds.6 mph55%29.83 "HgN/A
5:00 PM88 °FScattered clouds.7 mph52%29.83 "HgN/A
4:00 PM88 °FPartly sunny.13 mph52%29.83 "HgN/A
3:00 PM91 °FPartly sunny.8 mph49%29.83 "HgN/A
Weather by CustomWeather, © 2015

See weather overviewHow to use our weather pages